Time,TemperatureF,DewpointF,PressureIn,WindDirection,WindDirectionDegrees,WindSpeedMPH,WindSpeedGustMPH,Humidity,HourlyPrecipIn,Conditions,Clouds,dailyrainin,SoftwareType,DateUTC
2013-07-01 00:01:00,65.0,56.0,-100.00,North,0,0.0,4.0,73,-99.99,,,-99.99,,2013-07-01 07:01:00,
2013-07-01 00:11:00,65.0,56.0,-100.00,North,0,0.0,4.0,73,-99.99,,,-99.99,,2013-07-01 07:11:00,
2013-07-01 00:22:00,63.0,56.0,-100.00,NW,315,2.0,3.0,77,-99.99,,,-99.99,,2013-07-01 07:22:00,
2013-07-01 00:43:00,63.0,55.0,-100.00,NW,315,0.0,3.0,74,-99.99,,,-99.99,,2013-07-01 07:43:00,
2013-07-01 01:11:00,62.0,54.0,-100.00,North,0,3.0,4.0,76,-99.99,,,-99.99,,2013-07-01 08:11:00,
2013-07-01 01:22:00,67.0,55.0,-100.00,NW,315,4.0,7.0,65,-99.99,,,-99.99,,2013-07-01 08:22:00,
2013-07-01 01:42:00,68.0,55.0,-100.00,NW,315,4.0,7.0,65,-99.99,,,-99.99,,2013-07-01 08:42:00,
2013-07-01 01:52:00,69.0,55.0,-100.00,North,0,6.0,9.0,61,-99.99,,,-99.99,,2013-07-01 08:52:00,
2013-07-01 02:11:00,70.0,55.0,-100.00,NW,315,2.0,7.0,60,-99.99,,,-99.99,,2013-07-01 09:11:00,
2013-07-01 02:22:00,70.0,56.0,-100.00,NW,315,1.0,3.0,61,-99.99,,,-99.99,,2013-07-01 09:22:00,
2013-07-01 02:43:00,66.0,56.0,-100.00,SE,135,3.0,3.0,71,-99.99,,,-99.99,,2013-07-01 09:43:00,
2013-07-01 02:53:00,64.0,56.0,-100.00,SE,135,1.0,4.0,75,-99.99,,,-99.99,,2013-07-01 09:53:00,
2013-07-01 03:11:00,63.0,55.0,-100.00,South,180,2.0,3.0,77,-99.99,,,-99.99,,2013-07-01 10:11:00,
2013-07-01 03:22:00,63.0,55.0,-100.00,SW,225,1.0,3.0,77,-99.99,,,-99.99,,2013-07-01 10:22:00,
2013-07-01 03:42:00,59.0,54.0,-100.00,West,270,2.0,3.0,83,-99.99,,,-99.99,,2013-07-01 10:42:00,
2013-07-01 03:52:00,59.0,53.0,-100.00,West,270,1.0,1.0,81,-99.99,,,-99.99,,2013-07-01 10:52:00,
2013-07-01 04:11:00,58.0,54.0,-100.00,SW,225,0.0,2.0,85,-99.99,,,-99.99,,2013-07-01 11:11:00,
2013-07-01 04:22:00,57.0,53.0,-100.00,SW,225,0.0,1.0,86,-99.99,,,-99.99,,2013-07-01 11:22:00,
2013-07-01 04:43:00,56.0,53.0,-100.00,SW,225,3.0,3.0,89,-99.99,,,-99.99,,2013-07-01 11:43:00,
2013-07-01 04:52:00,56.0,53.0,-100.00,SW,225,2.0,2.0,89,-99.99,,,-99.99,,2013-07-01 11:52:00,
2013-07-01 05:11:00,54.0,51.0,-100.00,East,90,1.0,3.0,88,-99.99,,,-99.99,,2013-07-01 12:11:00,
2013-07-01 05:33:00,54.0,51.0,-100.00,NE,45,0.0,2.0,91,-99.99,,,-99.99,,2013-07-01 12:33:00,
2013-07-01 05:43:00,54.0,51.0,-100.00,NE,45,0.0,2.0,91,-99.99,,,-99.99,,2013-07-01 12:43:00,
2013-07-01 05:53:00,54.0,51.0,-100.00,SW,225,1.0,2.0,92,-99.99,,,-99.99,,2013-07-01 12:53:00,
2013-07-01 06:12:00,53.0,50.0,-100.00,SW,225,1.0,3.0,90,-99.99,,,-99.99,,2013-07-01 13:12:00,
2013-07-01 06:43:00,54.0,50.0,-100.00,West,270,1.0,1.0,85,-99.99,,,-99.99,,2013-07-01 13:43:00,
2013-07-01 07:11:00,59.0,52.0,-100.00,North,0,1.0,4.0,78,-99.99,,,-99.99,,2013-07-01 14:11:00,
2013-07-01 07:34:00,64.0,55.0,-100.00,SW,225,1.0,2.0,74,-99.99,,,-99.99,,2013-07-01 14:34:00,
2013-07-01 07:43:00,64.0,55.0,-100.00,SW,225,1.0,2.0,74,-99.99,,,-99.99,,2013-07-01 14:43:00,
2013-07-01 07:52:00,66.0,56.0,-100.00,SW,225,1.0,1.0,71,-99.99,,,-99.99,,2013-07-01 14:52:00,
2013-07-01 08:11:00,70.0,56.0,-100.00,South,180,3.0,3.0,62,-99.99,,,-99.99,,2013-07-01 15:11:00,
2013-07-01 08:23:00,70.0,56.0,-100.00,SE,135,1.0,4.0,63,-99.99,,,-99.99,,2013-07-01 15:23:00,
2013-07-01 08:43:00,71.0,56.0,-100.00,NW,315,1.0,3.0,59,-99.99,,,-99.99,,2013-07-01 15:43:00,
2013-07-01 08:52:00,71.0,56.0,-100.00,North,0,2.0,4.0,59,-99.99,,,-99.99,,2013-07-01 15:52:00,
2013-07-01 09:11:00,74.0,57.0,-100.00,East,90,1.0,2.0,56,-99.99,,,-99.99,,2013-07-01 16:11:00,
2013-07-01 09:33:00,77.0,56.0,-100.00,North,0,1.0,4.0,49,-99.99,,,-99.99,,2013-07-01 16:33:00,
2013-07-01 09:43:00,77.0,56.0,-100.00,North,0,1.0,4.0,49,-99.99,,,-99.99,,2013-07-01 16:43:00,
2013-07-01 09:53:00,76.0,58.0,-100.00,NE,45,2.0,4.0,55,-99.99,,,-99.99,,2013-07-01 16:53:00,
2013-07-01 10:12:00,77.0,58.0,-100.00,SE,135,2.0,4.0,52,-99.99,,,-99.99,,2013-07-01 17:12:00,
2013-07-01 10:23:00,77.0,58.0,-100.00,SE,135,2.0,4.0,52,-99.99,,,-99.99,,2013-07-01 17:23:00,
2013-07-01 10:33:00,78.0,57.0,-100.00,NE,45,3.0,6.0,49,-99.99,,,-99.99,,2013-07-01 17:33:00,
2013-07-01 10:43:00,78.0,57.0,-100.00,NE,45,3.0,6.0,49,-99.99,,,-99.99,,2013-07-01 17:43:00,
2013-07-01 10:53:00,79.0,57.0,-100.00,East,90,2.0,4.0,47,-99.99,,,-99.99,,2013-07-01 17:53:00,
2013-07-01 11:11:00,81.0,57.0,-100.00,East,90,0.0,6.0,44,-99.99,,,-99.99,,2013-07-01 18:11:00,
2013-07-01 11:22:00,81.0,58.0,-100.00,NE,45,2.0,6.0,46,-99.99,,,-99.99,,2013-07-01 18:22:00,
2013-07-01 11:43:00,83.0,55.0,-100.00,South,180,6.0,9.0,38,-99.99,,,-99.99,,2013-07-01 18:43:00,
2013-07-01 11:52:00,84.0,56.0,-100.00,South,180,4.0,8.0,39,-99.99,,,-99.99,,2013-07-01 18:52:00,
2013-07-01 12:11:00,85.0,57.0,-100.00,SE,135,4.0,11.0,39,-99.99,,,-99.99,,2013-07-01 19:11:00,
2013-07-01 12:21:00,85.0,57.0,-100.00,SE,135,4.0,11.0,39,-99.99,,,-99.99,,2013-07-01 19:21:00,
2013-07-01 12:33:00,86.0,55.0,-100.00,East,90,4.0,9.0,36,-99.99,,,-99.99,,2013-07-01 19:33:00,
2013-07-01 12:44:00,85.0,55.0,-100.00,East,90,4.0,12.0,36,-99.99,,,-99.99,,2013-07-01 19:44:00,
2013-07-01 12:52:00,87.0,51.0,-100.00,South,180,7.0,14.0,29,-99.99,,,-99.99,,2013-07-01 19:52:00,
2013-07-01 13:11:00,87.0,50.0,-100.00,SW,225,6.0,12.0,28,-99.99,,,-99.99,,2013-07-01 20:11:00,
2013-07-01 13:33:00,88.0,51.0,-100.00,South,180,9.0,11.0,28,-99.99,,,-99.99,,2013-07-01 20:33:00,
2013-07-01 13:43:00,88.0,51.0,-100.00,South,180,9.0,11.0,28,-99.99,,,-99.99,,2013-07-01 20:43:00,
2013-07-01 13:52:00,88.0,52.0,-100.00,South,180,4.0,11.0,29,-99.99,,,-99.99,,2013-07-01 20:52:00,
2013-07-01 14:11:00,89.0,50.0,-100.00,South,180,8.0,14.0,26,-99.99,,,-99.99,,2013-07-01 21:11:00,
2013-07-01 14:23:00,88.0,51.0,-100.00,SW,225,6.0,11.0,28,-99.99,,,-99.99,,2013-07-01 21:23:00,
2013-07-01 14:34:00,88.0,51.0,-100.00,SW,225,6.0,11.0,28,-99.99,,,-99.99,,2013-07-01 21:34:00,
2013-07-01 14:43:00,89.0,50.0,-100.00,West,270,4.0,12.0,26,-99.99,,,-99.99,,2013-07-01 21:43:00,
2013-07-01 14:53:00,89.0,48.0,-100.00,NW,315,6.0,14.0,24,-99.99,,,-99.99,,2013-07-01 21:53:00,
2013-07-01 15:11:00,90.0,47.0,-100.00,West,270,7.0,14.0,23,-99.99,,,-99.99,,2013-07-01 22:11:00,
2013-07-01 15:42:00,91.0,47.0,-100.00,West,270,6.0,14.0,22,-99.99,,,-99.99,,2013-07-01 22:42:00,
2013-07-01 15:53:00,91.0,51.0,-100.00,South,180,4.0,11.0,26,-99.99,,,-99.99,,2013-07-01 22:53:00,
2013-07-01 16:11:00,92.0,47.0,-100.00,SW,225,6.0,14.0,22,-99.99,,,-99.99,,2013-07-01 23:11:00,
2013-07-01 16:22:00,91.0,46.0,-100.00,SW,225,9.0,12.0,21,-99.99,,,-99.99,,2013-07-01 23:22:00,
2013-07-01 16:33:00,91.0,46.0,-100.00,SW,225,9.0,12.0,21,-99.99,,,-99.99,,2013-07-01 23:33:00,
2013-07-01 16:43:00,92.0,41.0,-100.00,SW,225,7.0,12.0,17,-99.99,,,-99.99,,2013-07-01 23:43:00,
2013-07-01 16:53:00,92.0,42.0,-100.00,SW,225,7.0,12.0,18,-99.99,,,-99.99,,2013-07-01 23:53:00,
2013-07-01 17:01:00,91.0,39.0,-100.00,West,270,10.0,15.0,16,-99.99,,,-99.99,,2013-07-02 00:01:00,
2013-07-01 17:11:00,91.0,39.0,-100.00,West,270,10.0,15.0,16,-99.99,,,-99.99,,2013-07-02 00:11:00,
2013-07-01 17:43:00,90.0,41.0,-100.00,West,270,6.0,14.0,18,-99.99,,,-99.99,,2013-07-02 00:43:00,
2013-07-01 17:53:00,91.0,43.0,-100.00,West,270,6.0,12.0,19,-99.99,,,-99.99,,2013-07-02 00:53:00,
2013-07-01 18:11:00,90.0,41.0,-100.00,SW,225,8.0,15.0,18,-99.99,,,-99.99,,2013-07-02 01:11:00,
2013-07-01 18:22:00,90.0,43.0,-100.00,SW,225,4.0,13.0,19,-99.99,,,-99.99,,2013-07-02 01:22:00,
2013-07-01 18:43:00,89.0,42.0,-100.00,West,270,9.0,14.0,20,-99.99,,,-99.99,,2013-07-02 01:43:00,
2013-07-01 18:53:00,88.0,45.0,-100.00,West,270,10.0,12.0,22,-99.99,,,-99.99,,2013-07-02 01:53:00,
2013-07-01 19:11:00,88.0,45.0,-100.00,SW,225,10.0,12.0,23,-99.99,,,-99.99,,2013-07-02 02:11:00,
2013-07-01 19:21:00,88.0,46.0,-100.00,West,270,5.0,12.0,24,-99.99,,,-99.99,,2013-07-02 02:21:00,
2013-07-01 19:33:00,86.0,48.0,-100.00,SW,225,4.0,11.0,26,-99.99,,,-99.99,,2013-07-02 02:33:00,
2013-07-01 19:43:00,86.0,48.0,-100.00,SW,225,4.0,11.0,26,-99.99,,,-99.99,,2013-07-02 02:43:00,
2013-07-01 19:53:00,86.0,47.0,-100.00,West,270,6.0,8.0,26,-99.99,,,-99.99,,2013-07-02 02:53:00,
2013-07-01 20:11:00,85.0,49.0,-100.00,West,270,3.0,9.0,29,-99.99,,,-99.99,,2013-07-02 03:11:00,
2013-07-01 20:24:00,84.0,49.0,-100.00,West,270,3.0,8.0,30,-99.99,,,-99.99,,2013-07-02 03:24:00,
2013-07-01 20:43:00,82.0,51.0,-100.00,West,270,4.0,6.0,34,-99.99,,,-99.99,,2013-07-02 03:43:00,
2013-07-01 20:53:00,82.0,52.0,-100.00,West,270,3.0,6.0,36,-99.99,,,-99.99,,2013-07-02 03:53:00,
2013-07-01 21:11:00,79.0,53.0,-100.00,North,0,3.0,4.0,41,-99.99,,,-99.99,,2013-07-02 04:11:00,
2013-07-01 21:21:00,76.0,54.0,-100.00,SE,135,2.0,4.0,47,-99.99,,,-99.99,,2013-07-02 04:21:00,
2013-07-01 21:32:00,74.0,55.0,-100.00,SE,135,1.0,3.0,51,-99.99,,,-99.99,,2013-07-02 04:32:00,
2013-07-01 21:42:00,74.0,55.0,-100.00,SE,135,1.0,3.0,51,-99.99,,,-99.99,,2013-07-02 04:42:00,
2013-07-01 21:53:00,73.0,53.0,-100.00,East,90,1.0,5.0,50,-99.99,,,-99.99,,2013-07-02 04:53:00,
2013-07-01 22:11:00,70.0,53.0,-100.00,North,-999,0.0,0.0,55,-99.99,,,-99.99,,2013-07-02 05:11:00,
2013-07-01 22:22:00,69.0,55.0,-100.00,SW,225,0.0,1.0,60,-99.99,,,-99.99,,2013-07-02 05:22:00,
2013-07-01 22:43:00,67.0,53.0,-100.00,West,270,0.0,1.0,61,-99.99,,,-99.99,,2013-07-02 05:43:00,
2013-07-01 22:53:00,66.0,53.0,-100.00,West,270,0.0,2.0,63,-99.99,,,-99.99,,2013-07-02 05:53:00,
2013-07-01 23:23:00,63.0,52.0,-100.00,West,270,1.0,1.0,68,-99.99,,,-99.99,,2013-07-02 06:23:00,